Flagstaff, Arizona, United States (86001)
Lat: 35.20N, Lon: 111.65W
Wx Zone: AZZ015
Local Info
Past Weather Observations for Friday, April 18, 2014

NOTE: This archive is for the closest National Weather Service station to Flagstaff. Information may differ from the station used for current weather conditions.

Time Weather Temperature Dewpoint Humidity Pressure Winds Precip Visibility
23:57
Mostly Cloudy
39°F / 4°C 37°F / 3°C 93% 30.12 in
(1020 mb)
Calm - 10SM
22:57
Overcast
43°F / 6°C 39°F / 4°C 87% 30.12 in
(1020 mb)
Calm - 10SM
21:57
Overcast
43°F / 6°C 39°F / 4°C 87% 30.15 in
(1021 mb)
NE 4.6 mph
(NE 7 kph)
0.01 in
(0.25 mm)
10SM
20:57
Overcast
Light Rain
43°F / 6°C 39°F / 4°C 87% 30.15 in
(1021 mb)
Calm 0.01 in
(0.25 mm)
9SM
19:57
Overcast
43°F / 6°C 39°F / 4°C 87% 30.12 in
(1020 mb)
Calm 0.00 in
(0.00 mm)
10SM
19:52
Overcast
43°F / 6°C 39°F / 4°C 87% 30.12 in
(1020 mb)
Calm 0.00 in
(0.00 mm)
10SM
19:44
Overcast
43°F / 6°C 39°F / 4°C 87% 30.12 in
(1020 mb)
Calm 0.00 in
(0.00 mm)
10SM
18:57
Overcast
Light Rain
45°F / 7°C 39°F / 4°C 81% 30.12 in
(1020 mb)
Calm 0.00 in
(0.00 mm)
10SM
17:57
Overcast
Light Rain
46°F / 8°C 37°F / 3°C 71% 30.12 in
(1020 mb)
S 9.2 mph
(S 15 kph)
0.00 in
(0.00 mm)
10SM
16:57
Overcast
48°F / 9°C 36°F / 2°C 62% 30.12 in
(1020 mb)
S 9.2 mph
(S 15 kph)
0.00 in
(0.00 mm)
10SM
15:57
Overcast
52°F / 11°C 32°F / 0°C 47% 30.12 in
(1020 mb)
SSE 20.7 mph
(SSE 33 kph)
- 10SM
14:57
Overcast
54°F / 12°C 30°F / -1°C 41% 30.12 in
(1020 mb)
SW 18.4 mph
(SW 30 kph)
- 10SM
13:57
Overcast
55°F / 13°C 27°F / -3°C 33% 30.15 in
(1021 mb)
SW 19.6 mph
(SW 32 kph)
- 10SM
12:57
Partly Cloudy
57°F / 14°C 27°F / -3°C 31% 30.12 in
(1020 mb)
SW 18.4 mph
(SW 30 kph)
- 10SM
11:57
Partly Cloudy
59°F / 15°C 30°F / -1°C 34% 30.15 in
(1021 mb)
SW 13.8 mph
(SW 22 kph)
- 10SM
10:57
Clear
54°F / 12°C 25°F / -4°C 33% 30.15 in
(1021 mb)
SW 8.1 mph
(SW 13 kph)
- 10SM
09:57
Clear
52°F / 11°C 25°F / -4°C 35% 30.15 in
(1021 mb)
SSE 9.2 mph
(SSE 15 kph)
- 10SM
08:57
Clear
54°F / 12°C 21°F / -6°C 28% 30.15 in
(1021 mb)
SW 11.5 mph
(SW 19 kph)
- 10SM
07:57
Clear
48°F / 9°C 21°F / -6°C 34% 30.12 in
(1020 mb)
SW 4.6 mph
(SW 7 kph)
- 10SM
06:57
Clear
37°F / 3°C 23°F / -5°C 56% 30.12 in
(1020 mb)
Calm - 10SM
05:57
Clear
34°F / 1°C 21°F / -6°C 60% 30.09 in
(1019 mb)
Calm - 10SM
04:57
Clear
36°F / 2°C 19°F / -7°C 52% 30.09 in
(1019 mb)
Calm - 10SM
03:57
Clear
36°F / 2°C 19°F / -7°C 52% 30.09 in
(1019 mb)
Calm - 10SM
02:57
Clear
37°F / 3°C 19°F / -7°C 48% 30.09 in
(1019 mb)
Calm - 10SM
01:57
Clear
37°F / 3°C 19°F / -7°C 48% 30.09 in
(1019 mb)
Calm - 10SM
00:57
Clear
37°F / 3°C 19°F / -7°C 48% 30.12 in
(1020 mb)
Calm - 10SM
Time Weather Temperature Dewpoint Humidity Pressure Winds Precip Visibility


Weather for websites

WeatherForYou.com, LLC is not responsible for any damages or problems caused by this service. Current weather conditions are obtained from the closest station including government and personal stations which may have varying degrees of accuracy. Weather forecasts are derived from the NOAA NDFD. Like all things, this site belongs to Jesus Christ... He just trusts me to maintain it. If you have any questions or comments email webmaster@weatherforyou.com

Copyright © 2014, WeatherForYou.com LLC. All rights reserved.